Windom, MN

5:03 AM CST on January 21, 2017 (GMT -0600)
Windom

Weather History for KMWM - October, 2010

Change the Weather History Date:

Thursday, October 14, 2010

  Actual Average Record
Temperature  
Mean Temperature 52 °F -  
Max Temperature 68 °F 61 °F 86 °F (1953)
Min Temperature 35 °F 37 °F 24 °F (1979)
Degree Days  
Heating Degree Days 14    
Growing Degree Days 2 (Base 50)    
Moisture  
Dew Point 33 °F    
Average Humidity 54    
Maximum Humidity 87    
Minimum Humidity 26    
Precipitation  
Precipitation 0.00 in - - ()
Sea Level Pressure  
Sea Level Pressure 30.05 in    
Wind  
Wind Speed 8 mph (West)    
Max Wind Speed 23 mph    
Max Gust Speed 32 mph    
Visibility 10 miles    
Events      
Averages and records for this station are not official NWS values.
T = Trace of Precipitation, MM = Missing Value Source: NWS Daily Summary

Daily Weather History Graph

Daily Weather History Graph

Search for Another Location

Airport or City:

Trip Planner

Search our weather history database for the weather conditions in past years. The results will help you decide how hot, cold, wet, or windy it might be!

Date:

Astronomy

Oct. 14, 2010 Rise Set
Actual Time 7:33 AM CDT 6:38 PM CDT
Civil Twilight 7:04 AM CDT 7:07 PM CDT
Nautical Twilight 6:31 AM CDT 7:40 PM CDT
Astronomical Twilight 5:57 AM CDT 8:14 PM CDT
Moon 2:41 PM CDT (10/14) No Moon Set
Length of Visible Light 12h 02m
Length of Day
11h 04m
Waxing Crescent, 48% of the Moon is Illuminated
Oct 14
Waxing Crescent
Oct 14
First Quarter
Oct 22
Full
Oct 30
Last Quarter
Nov 5
New

Hourly Weather History & Observations

Time (CDT) Temp. Windchill Dew Point Humidity Pressure Visibility Wind Dir Wind Speed Gust Speed Precip Events Conditions
12:13 AM 39.2 °F 37.0 °F 33.8 °F 81% 30.21 in 10.0 mi South 3.5 mph - N/A   Clear
12:33 AM 39.2 °F - 33.8 °F 81% 30.21 in 10.0 mi Calm Calm - N/A   Clear
12:53 AM 39.2 °F 37.0 °F 33.8 °F 81% 30.20 in 10.0 mi SSW 3.5 mph - N/A   Clear
1:13 AM 39.2 °F - 33.8 °F 81% 30.19 in 10.0 mi Calm Calm - N/A   Clear
1:33 AM 39.2 °F - 33.8 °F 81% 30.19 in 10.0 mi Calm Calm - N/A   Clear
1:53 AM 37.4 °F 34.9 °F 33.8 °F 87% 30.18 in 10.0 mi South 3.5 mph - N/A   Clear
2:13 AM 37.4 °F 34.9 °F 33.8 °F 87% 30.18 in 10.0 mi South 3.5 mph - N/A   Clear
2:33 AM 35.6 °F - 32.0 °F 87% 30.17 in 10.0 mi Calm Calm - N/A   Clear
3:13 AM 37.4 °F - 32.0 °F 81% 30.16 in 10.0 mi Calm Calm - N/A   Clear
3:33 AM 39.2 °F 37.0 °F 30.2 °F 70% 30.15 in 10.0 mi SW 3.5 mph - N/A   Clear
3:53 AM 39.2 °F 37.0 °F 30.2 °F 70% 30.14 in 10.0 mi SW 3.5 mph - N/A   Clear
4:13 AM 39.2 °F - 32.0 °F 75% 30.13 in 10.0 mi Calm Calm - N/A   Clear
4:33 AM 39.2 °F - 32.0 °F 75% 30.13 in 10.0 mi Calm Calm - N/A   Clear
4:53 AM 39.2 °F 37.0 °F 32.0 °F 75% 30.13 in 10.0 mi SW 3.5 mph - N/A   Clear
5:13 AM 39.2 °F 37.0 °F 32.0 °F 75% 30.13 in 10.0 mi SW 3.5 mph - N/A   Clear
5:33 AM 39.2 °F 34.2 °F 32.0 °F 75% 30.12 in 10.0 mi SSW 6.9 mph - N/A   Clear
5:53 AM 42.8 °F 38.0 °F 32.0 °F 66% 30.12 in 10.0 mi SSW 8.1 mph - N/A   Clear
6:13 AM 42.8 °F 38.0 °F 33.8 °F 70% 30.11 in 10.0 mi SW 8.1 mph - N/A   Clear
6:33 AM 42.8 °F 38.6 °F 33.8 °F 70% 30.10 in 10.0 mi SSW 6.9 mph - N/A   Clear
6:53 AM 41.0 °F 36.4 °F 33.8 °F 76% 30.10 in 10.0 mi SSW 6.9 mph - N/A   Clear
7:13 AM 41.0 °F 36.4 °F 33.8 °F 76% 30.09 in 10.0 mi SSW 6.9 mph - N/A   Clear
7:33 AM 42.8 °F 38.0 °F 33.8 °F 70% 30.07 in 10.0 mi SSW 8.1 mph - N/A   Clear
7:53 AM 42.8 °F 38.6 °F 32.0 °F 66% 30.07 in 10.0 mi SSW 6.9 mph - N/A   Clear
8:13 AM 42.8 °F 38.6 °F 33.8 °F 70% 30.05 in 10.0 mi SSW 6.9 mph - N/A   Clear
8:33 AM 44.6 °F 40.2 °F 33.8 °F 66% 30.05 in 10.0 mi SSW 8.1 mph - N/A   Clear
8:53 AM 46.4 °F 41.5 °F 33.8 °F 62% 30.04 in 10.0 mi SSW 10.4 mph - N/A   Clear
9:13 AM 48.2 °F - 33.8 °F 58% 30.02 in 10.0 mi SSW 9.2 mph - N/A   Clear
9:33 AM 51.8 °F - 33.8 °F 50% 30.01 in 10.0 mi SSW 13.8 mph - N/A   Clear
9:53 AM 53.6 °F - 33.8 °F 47% 30.00 in 10.0 mi SW 15.0 mph 23.0 mph N/A   Clear
10:13 AM 55.4 °F - 33.8 °F 44% 29.99 in 10.0 mi SW 16.1 mph 23.0 mph N/A   Clear
10:33 AM 57.2 °F - 32.0 °F 38% 29.99 in 10.0 mi WSW 17.3 mph 20.7 mph N/A   Clear
10:53 AM 57.2 °F - 33.8 °F 41% 29.98 in 10.0 mi WSW 17.3 mph - N/A   Clear
11:13 AM 57.2 °F - 35.6 °F 44% 29.98 in 10.0 mi West 11.5 mph - N/A   Clear
11:53 AM 60.8 °F - 33.8 °F 36% 29.97 in 10.0 mi West 16.1 mph 21.9 mph N/A   Clear
12:13 PM 62.6 °F - 33.8 °F 34% 29.97 in 10.0 mi WNW 15.0 mph 23.0 mph N/A   Clear
12:33 PM 62.6 °F - 33.8 °F 34% 29.97 in 10.0 mi WNW 16.1 mph 25.3 mph N/A   Clear
12:53 PM 66.2 °F - 33.8 °F 30% 29.97 in 10.0 mi NW 18.4 mph 25.3 mph N/A   Clear
1:13 PM 66.2 °F - 33.8 °F 30% 29.96 in 10.0 mi NW 17.3 mph 21.9 mph N/A   Clear
1:33 PM 66.2 °F - 33.8 °F 30% 29.96 in 10.0 mi NW 19.6 mph 26.5 mph N/A   Clear
1:53 PM 66.2 °F - 33.8 °F 30% 29.95 in 10.0 mi NW 20.7 mph 28.8 mph N/A   Clear
2:13 PM 66.2 °F - 32.0 °F 28% 29.95 in 10.0 mi NW 21.9 mph 26.5 mph N/A   Clear
2:33 PM 66.2 °F - 30.2 °F 26% 29.95 in 10.0 mi NW 18.4 mph 25.3 mph N/A   Clear
2:53 PM 66.2 °F - 30.2 °F 26% 29.95 in 10.0 mi NW 18.4 mph 24.2 mph N/A   Clear
3:13 PM 68.0 °F - 32.0 °F 26% 29.95 in 10.0 mi NNW 23.0 mph 31.1 mph N/A   Clear
3:33 PM 66.2 °F - 32.0 °F 28% 29.95 in 10.0 mi NNW 23.0 mph 29.9 mph N/A   Clear
3:53 PM 66.2 °F - 33.8 °F 30% 29.96 in 10.0 mi NNW 21.9 mph 26.5 mph N/A   Clear
4:13 PM 66.2 °F - 33.8 °F 30% 29.96 in 10.0 mi NW 16.1 mph 25.3 mph N/A   Clear
4:33 PM 66.2 °F - 33.8 °F 30% 29.97 in 10.0 mi NW 18.4 mph 32.2 mph N/A   Clear
4:53 PM 66.2 °F - 33.8 °F 30% 29.97 in 10.0 mi NW 21.9 mph 29.9 mph N/A   Clear
5:13 PM 66.2 °F - 33.8 °F 30% 29.97 in 10.0 mi NW 21.9 mph 28.8 mph N/A   Clear
5:33 PM 64.4 °F - 33.8 °F 32% 29.98 in 10.0 mi NNW 17.3 mph 27.6 mph N/A   Clear
5:53 PM 62.6 °F - 33.8 °F 34% 29.98 in 10.0 mi NNW 17.3 mph 27.6 mph N/A   Clear
6:13 PM 62.6 °F - 33.8 °F 34% 29.99 in 10.0 mi NNW 15.0 mph - N/A   Clear
6:33 PM 60.8 °F - 35.6 °F 39% 29.98 in 10.0 mi NNW 12.7 mph - N/A   Clear
6:53 PM 59.0 °F - 35.6 °F 42% 29.99 in 10.0 mi NW 11.5 mph - N/A   Clear
7:13 PM 57.2 °F - 35.6 °F 44% 30.00 in 10.0 mi NW 9.2 mph - N/A   Clear
7:33 PM 55.4 °F - 37.4 °F 51% 30.00 in 10.0 mi NNW 9.2 mph - N/A   Clear
7:53 PM 51.8 °F - 37.4 °F 58% 30.00 in 10.0 mi NNW 8.1 mph - N/A   Clear
8:13 PM 51.8 °F - 37.4 °F 58% 30.01 in 10.0 mi NNW 9.2 mph - N/A   Clear
8:33 PM 51.8 °F - 37.4 °F 58% 30.02 in 10.0 mi NNW 6.9 mph - N/A   Clear
8:53 PM 51.8 °F - 37.4 °F 58% 30.02 in 10.0 mi NNW 8.1 mph - N/A   Clear
9:13 PM 50.0 °F - 37.4 °F 62% 30.02 in 10.0 mi NNW 9.2 mph - N/A   Clear
9:33 PM 48.2 °F - 35.6 °F 62% 30.03 in 10.0 mi NNW 8.1 mph - N/A   Clear
9:53 PM 48.2 °F - 35.6 °F 62% 30.04 in 10.0 mi NW 6.9 mph - N/A   Clear
10:13 PM 48.2 °F - 35.6 °F 62% 30.04 in 10.0 mi NW 5.8 mph - N/A   Clear
10:33 PM 44.6 °F 41.4 °F 35.6 °F 71% 30.05 in 10.0 mi WNW 5.8 mph - N/A   Clear
10:53 PM 44.6 °F 41.4 °F 35.6 °F 71% 30.05 in 10.0 mi NW 5.8 mph - N/A   Clear
11:13 PM 44.6 °F 39.7 °F 35.6 °F 71% 30.06 in 10.0 mi NW 9.2 mph - N/A   Clear
11:33 PM 46.4 °F 42.4 °F 35.6 °F 66% 30.06 in 10.0 mi NW 8.1 mph - N/A   Clear
11:53 PM 44.6 °F 39.7 °F 35.6 °F 71% 30.06 in 10.0 mi NW 9.2 mph - N/A   Clear